Beaufort, SC

10:46 AM EST on December 07, 2016 (GMT -0500)
Beaufort Marine Corps Air Station

Weather History for KNBC - January, 2014

Change the Weather History Date:

Thursday, January 30, 2014

  Actual Average Record
Temperature  
Mean Temperature 32 °F -  
Max Temperature 36 °F 62 °F 80 °F (1950)
Min Temperature 28 °F 39 °F 11 °F (1966)
Degree Days  
Heating Degree Days 33    
Moisture  
Dew Point 22 °F    
Average Humidity 66    
Maximum Humidity 75    
Minimum Humidity 59    
Precipitation  
Precipitation 0.00 in - - ()
Sea Level Pressure  
Sea Level Pressure 30.30 in    
Wind  
Wind Speed 10 mph (NNE)    
Max Wind Speed 16 mph    
Max Gust Speed -    
Visibility 10 miles    
Events      
Averages and records for this station are not official NWS values.
T = Trace of Precipitation, MM = Missing Value Source: NWS Daily Summary

Daily Weather History Graph

Daily Weather History Graph

Search for Another Location

Airport or City:

Trip Planner

Search our weather history database for the weather conditions in past years. The results will help you decide how hot, cold, wet, or windy it might be!

Date:

Astronomy

Jan. 30, 2014 Rise Set
Actual Time 7:18 AM EST 5:54 PM EST
Civil Twilight 6:52 AM EST 6:20 PM EST
Nautical Twilight 6:23 AM EST 6:49 PM EST
Astronomical Twilight 5:54 AM EST 7:18 PM EST
Moon 6:45 AM EST (1/30) 6:00 PM EST (1/30)
Length of Visible Light 11h 27m
Length of Day
10h 35m
Waning Crescent, 0% of the Moon is Illuminated
Jan 30
Waning Crescent
Jan 30
New
Feb 6
First Quarter
Feb 14
Full
Feb 22
Last Quarter

Hourly Weather History & Observations

Time (EST) Temp. Windchill Dew Point Humidity Pressure Visibility Wind Dir Wind Speed Gust Speed Precip Events Conditions
12:56 AM 28.9 °F 19.8 °F 21.9 °F 75% 30.36 in 10.0 mi NE 10.4 mph - N/A   Overcast
1:56 AM 28.9 °F 19.8 °F 19.9 °F 69% 30.33 in 10.0 mi NNE 10.4 mph - N/A   Overcast
2:56 AM 28.9 °F 19.8 °F 19.0 °F 67% 30.34 in 10.0 mi NE 10.4 mph - N/A   Overcast
3:56 AM 28.0 °F 18.1 °F 18.0 °F 66% 30.33 in 10.0 mi NE 11.5 mph - N/A   Overcast
4:56 AM 28.0 °F 18.6 °F 18.0 °F 66% 30.32 in 10.0 mi NE 10.4 mph - N/A   Overcast
5:56 AM 28.0 °F 18.6 °F 18.0 °F 66% 30.32 in 10.0 mi NE 10.4 mph - N/A   Overcast
6:56 AM 28.9 °F 18.2 °F 17.1 °F 61% 30.34 in 10.0 mi NE 13.8 mph - N/A   Overcast
7:56 AM 28.9 °F 17.3 °F 18.0 °F 64% 30.35 in 10.0 mi NNE 16.1 mph - N/A   Overcast
8:56 AM 30.0 °F 20.5 °F 19.0 °F 64% 30.36 in 10.0 mi NNE 11.5 mph - N/A   Overcast
9:56 AM 30.0 °F 20.0 °F 19.9 °F 66% 30.36 in 10.0 mi NE 12.7 mph - N/A   Overcast
10:56 AM 30.9 °F 22.2 °F 19.9 °F 64% 30.37 in 10.0 mi NNE 10.4 mph - N/A   Overcast
11:16 AM 32.0 °F 23.6 °F 21.0 °F 64% 30.36 in 10.0 mi NE 10.4 mph - N/A   Overcast
11:56 AM 32.0 °F 24.2 °F 21.0 °F 64% 30.35 in 10.0 mi North 9.2 mph - N/A   Overcast
12:56 PM 32.0 °F 23.0 °F 21.9 °F 66% 30.32 in 10.0 mi NNE 11.5 mph - N/A   Overcast
1:56 PM 33.1 °F 24.4 °F 21.0 °F 61% 30.30 in 10.0 mi NNE 11.5 mph - N/A   Overcast
2:46 PM 33.1 °F 23.4 °F 21.0 °F 61% 30.27 in 10.0 mi NNE 13.8 mph - N/A   Overcast
2:56 PM 33.1 °F 25.5 °F 21.0 °F 61% 30.27 in 10.0 mi North 9.2 mph - N/A   Overcast
3:56 PM 34.0 °F 26.6 °F 21.0 °F 59% 30.26 in 10.0 mi North 9.2 mph - N/A   Overcast
4:56 PM 35.1 °F 29.3 °F 23.0 °F 61% 30.25 in 7.0 mi North 6.9 mph - N/A   Mostly Cloudy
5:56 PM 35.1 °F 28.6 °F 26.1 °F 70% 30.25 in 7.0 mi North 8.1 mph - N/A   Mostly Cloudy
6:56 PM 35.1 °F 32.2 °F 27.0 °F 72% 30.24 in - North 3.5 mph - N/A   Mostly Cloudy
7:56 PM 35.1 °F 32.2 °F 27.0 °F 72% 30.26 in 10.0 mi North 3.5 mph - N/A   Overcast
8:56 PM 35.1 °F 28.6 °F 27.0 °F 72% 30.28 in 10.0 mi North 8.1 mph - N/A   Overcast
9:56 PM 35.1 °F 28.6 °F 26.1 °F 70% 30.25 in 10.0 mi North 8.1 mph - N/A   Overcast
10:56 PM 36.0 °F 33.3 °F 25.0 °F 64% 30.22 in 10.0 mi ENE 3.5 mph - N/A   Mostly Cloudy
11:56 PM 36.0 °F 31.1 °F 26.1 °F 67% 30.23 in 10.0 mi North 5.8 mph - N/A   Overcast